Airfield :
LOGIN :

Register | Disclaimer

   EN    FR    IT 

 










Legend :    VFR   Marginal VFR   IFR   Intensive IFR   Very Intensive IFR
Visi :
Ceiling :
>= 8 km
>= 3000ft
5 to 8 km
1000 to 3000 ft
1500m to 5 km
500 to 1000 ft
800 to 1500m
200 to 500 ft
< 800m
< 200 ft
Symbols :   Thunderstorms  Fog  Heavy snow  Heavy precipitations  Wind > 20 kt
SIGMETs :     Misc.  Thunderstorms  Icing  Turbulence  Mountain Waves  Volcanic Ashes






- Airport Elevation : 36 ft
- IATA code : GJL


DAAV - Jijel Ferhat Abbas

CURRENT METAR :
  • 131504Z 33005KT 8000 TS FEW026TCU FEW030CB 30/23 Q1014

EXPIRED METARs :
  • 131400Z 31008KT 8000 FEW026TCU FEW030CB 30/23 Q1015
  • 131346Z 31009KT 8000 FEW026TCU FEW030CB 30/23 Q1015
  • 131300Z 28009KT 8000 FEW026 FEW030TCU 30/22 Q1015

TAF TAF DAAV
Valid from the 13 at 12:00 until the 14 at 12:00 UTC


131100Z 1312/1412 10012KT 7000 FEW020
TEMPO 1312/1324 FEW023TCU
PROB30
TEMPO 1318/1322 5000 -TSRA FEW030CB
BECMG 1320/1322 VRB02KT



MET'MAP, your aeronautical weather chart ! - Copyright ORBIFLY December 2007 - Disclaimer

ORBIFLY MET'MAP TEAM :

Programming & Development : Alexandra Zaïnal
Concept & original design : Baudouin d'Aumeries
Assistance for programming : Marc-Olivier Méhu
Technical & hardware support : Manuel Goepfert

Contact : metmap@orbifly.com




SOURCES & CREDITS :

   NOAA